SL-16 DEB, 27007

Orbit data source: Space-Track

SL-16 DEB, 27007 is space debris in SSO originally from a launch on Mon, 10 Dec 2001 UTC launched from the Tyuratam Missile And Space Complex (TTMTR). Debris objects in space refer to the collection of defunct objects orbiting the Earth. Examples of debris include non-operational satellites, rocket bodies, and fragments generated from explosions, collisions, or faulty payload assembly.

Loading next visibility...
SL-16 DEB details
Identifier
27007, 2001-056G
Orbit
SSO
Last TLE update11 hours ago
Origin
Flag of CISKVR (CIS)
ManufacturerNII EM
MissionSpacecraft
Bus & MotorAR, Unknown motor
Mass344 kg wet, 344 kg dry
Launch date (UTC)
2001-12-10 (23 years ago)
Launch vehicleUnknown
Launch site
Tyuratam Missile And Space Complex (TTMTR)
Object type
Payload
Rocket body
Debris
Shape & HBRBox, 3.9 m
Radar Cross Section11.505 m², Small (<0.1 m²)

Expand to show TLE details & history

TLE from 11 hours ago
0 SL-16 DEB
1 27007U 01056G   24361.21466859  .00002279  00000-0  23029-2 0  9993
2 27007  99.4421 145.4239 0011428 273.2460  86.7384 13.78268821154478
Epoch: 2024-12-26T05:09Z
Definitive object data (Epoch: 2024-12-26T05:09:07.366Z)
Latitude0.00005°
Longitude-27.05407°
Altitude972.398 km
Speed7.366 km/s
True Right ascension09h 41m 41s
True Declination0° 00' 00"
Sunlit
Object was in full shadow at TLE epoch
Visualization TLE readout
Latitude60.55898°
Longitude-43.65331°
Altitude987.537 km
Speed7.36 km/s
Apparent Right ascension05h 27m 27s
Apparent Declination19° 23' 02"
Sunlit
Object is in full shadow
Visualization observer readout
Local Sidereal Time15:16:21
Azimuth326.224° NNW
Elevation-23.289°
Doppler factor1
Orbital elements
Apogee altitude975.678 km
Perigee altitude958.89 km
Semi-major axis7,345.421 km
Eccentricity0.0011428
Inclination99.4421°
RAAN145.4239°
Arg. of periapsis273.246°
True anomaly86.86915°
Mean anomaly86.7384°
Eccentric anomaly86.80378°
Mean motion3.44761 °/min
BSTAR0.0023029
Orbital period104.42 mins
Loading maneuver chart data...
Loading historical data...
Loading historical data...
Loading historical data...
Loading historical data...
Loading historical data...
Loading historical data...
Loading historical data...

SL-16 DEB Visibility forecast

Observer location: undefined°, undefined

Span
Click to sort rows by Start time (UTC) header in descending order
Start Az.
Max El. time (UTC)
Max El. Az.
Max El.
End time (UTC)
End Az.
8 mins2024-12-26 21:27:16.959Z50.569° ENE2024-12-26 21:31:16.959Z94.021° ESE18.447°2024-12-26 21:35:16.959Z136.29° SSE
10 mins2024-12-26 23:10:16.959Z3.757° NNE2024-12-26 23:14:16.959Z305.871° NW41.15°2024-12-26 23:20:16.959Z210.539° SW
10 mins2024-12-27 09:09:16.959Z137.263° SSE2024-12-27 09:14:16.959Z61.648° ENE36.43°2024-12-27 09:19:16.959Z358.857° N
7 mins2024-12-27 10:54:16.959Z225.335° WSW2024-12-27 10:57:16.959Z265.066° W23.439°2024-12-27 11:01:16.959Z313.478° NW
|